User: anonymous   Login
Location: Hartman Creek State Park
(44.3257°N, 89.2134°W)
Time: 13:10:04
(UTC-05:00)
Language:

Terra - Orbit

View from above orbital plane
View from above orbital plane
View from above satellite
View from above satellite

Ground track
Ground track

The orbit data is extracted from the following two-line orbital elements,

1 25994U 99068A   16148.14528018  .00000173  00000-0  48574-4 0  9993
2 25994  98.2137 222.7386 0001322 115.3168 244.8182 14.57102227874452
Epoch (UTC): 27 May 2016 03:29:12
Eccentricity: 0.0001322
inclination: 98.2137°
perigee height: 701 km
apogee height: 703 km
right ascension of ascending node: 222.7386°
argument of perigee: 115.3168°
revolutions per day: 14.57102227
mean anomaly at epoch: 244.8182°
orbit number at epoch: 87445

The dashed part of the orbit path shows where the satellite is in the earth's shadow,  

DLR